Date String (YYYY-MM-DD hh:mm:ss) UTC,Instrument flags,absolute air pressure of the measurement (hPa),sample flow rate (lpm),inlet stack bypass flow (lpm),air temperature of the measurement (°C),ambient temperature measured by the external sensor (°C),aerosol sample conditioner tube jacket temperature (°C),OPC LED temperature (°C),internal box temperature (°C),relative humidity of the measurement (%),span deviation,mass concentration of particles derived from Lorenz-Mie calculation of OPC scattering (μg/m³),mass concentration of particles derived from Lorenz-Mie calculation of OPC scattering (μg/m³),mass concentration of particles derived from Lorenz-Mie calculation of OPC scattering (μg/m³)
DateTimeUTC,F1_M11,P_M11,Q1_M11,Q2_M11,T1_M11,T2_M11,T3_M11,T4_M11,T5_M11,U1_M11,ZSPAN_M11,X0_M11,X2_M11,X1_M11
2023-11-18 14:00:00,SystemResetWarning,0829.9,4.99,000.00,022.4,021.3,000.0,030.8,023.8,14.6,0002.5,0010.11,0004.39,0003.95
2023-11-18 14:01:00,SystemResetWarning,0829.9,4.99,000.00,022.4,021.3,000.0,030.8,023.8,14.2,0000.3,0009.64,0004.28,0003.84
2023-11-18 14:02:00,SystemResetWarning,0829.9,5.00,000.00,022.4,021.3,000.0,030.8,023.7,14.1,0000.0,0009.66,0004.12,0003.69
2023-11-18 14:03:00,SystemResetWarning,0829.9,5.02,000.00,022.4,021.3,000.0,030.8,023.7,13.5,0000.0,0009.39,0004.02,0003.58
2023-11-18 14:04:00,SystemResetWarning,0829.9,5.00,000.00,022.4,021.3,000.0,030.8,023.7,13.6,0000.0,0008.05,0003.94,0003.52
2023-11-18 14:05:00,SystemResetWarning,0830.0,5.00,000.00,022.4,021.3,000.0,030.8,023.7,14.3,0000.0,0008.29,0003.87,0003.45
2023-11-18 14:06:00,SystemResetWarning,0829.9,4.99,000.00,022.4,021.3,000.0,030.8,023.7,14.4,0000.0,0008.04,0003.78,0003.36
2023-11-18 14:07:00,SystemResetWarning,0829.9,4.99,000.00,022.4,021.3,000.0,030.8,023.7,14.4,0000.0,0007.73,0003.67,0003.25
2023-11-18 14:08:00,SystemResetWarning,0830.0,5.00,000.00,022.4,021.3,000.0,030.8,023.7,14.4,0000.0,0007.54,0003.53,0003.13
2023-11-18 14:09:00,SystemResetWarning,0830.0,5.00,000.00,022.4,021.3,000.0,030.8,023.7,14.1,0000.0,0006.98,0003.40,0002.99
2023-11-18 14:10:00,SystemResetWarning,0830.0,5.00,000.00,022.4,021.2,000.0,030.8,023.7,13.8,0000.0,0006.54,0003.28,0002.83
2023-11-18 14:11:00,SystemResetWarning,0830.0,5.00,000.00,022.4,021.3,000.0,030.8,023.7,13.8,0000.0,0006.69,0003.20,0002.73
2023-11-18 14:12:00,SystemResetWarning,0829.9,5.01,000.00,022.4,021.3,000.0,030.8,023.7,14.4,0000.0,0006.61,0003.15,0002.65
2023-11-18 14:13:00,SystemResetWarning,0830.0,5.01,000.00,022.4,021.3,000.0,030.8,023.7,14.7,0000.0,0006.43,0003.09,0002.59
2023-11-18 14:14:00,SystemResetWarning,0830.0,5.01,000.00,022.3,021.3,000.0,030.8,023.7,14.7,0000.0,0005.68,0003.04,0002.56
2023-11-18 14:15:00,SystemResetWarning,0830.0,5.00,000.00,022.3,021.3,000.0,030.8,023.7,14.6,0000.0,0005.63,0002.98,0002.50
2023-11-18 14:16:00,SystemResetWarning,0829.9,5.00,000.00,022.3,021.3,000.0,030.8,023.7,14.1,0000.0,0005.00,0002.88,0002.40
2023-11-18 14:17:00,SystemResetWarning,0829.9,4.99,000.00,022.3,021.3,000.0,030.8,023.7,13.5,0000.0,0004.78,0002.87,0002.38
2023-11-18 14:18:00,SystemResetWarning,0829.9,4.99,000.00,022.3,021.3,000.0,030.8,023.7,13.4,0000.0,0004.91,0002.99,0002.48
2023-11-18 14:19:00,SystemResetWarning,0829.9,5.00,000.00,022.3,021.3,000.0,030.7,023.7,13.4,0000.0,0005.10,0003.11,0002.62
2023-11-18 14:20:00,SystemResetWarning,0829.9,5.02,000.00,022.3,021.3,000.0,030.7,023.7,13.5,0000.0,0005.31,0003.21,0002.77
2023-11-18 14:21:00,SystemResetWarning,0829.9,4.99,000.00,022.4,021.3,000.0,030.7,023.7,13.9,0000.0,0006.84,0003.28,0002.91
2023-11-18 14:22:00,SystemResetWarning,0829.9,4.99,000.00,022.4,021.3,000.0,030.7,023.7,14.9,0000.0,0007.25,0003.29,0002.92
2023-11-18 14:23:00,SystemResetWarning,0829.9,5.00,000.00,022.4,021.3,000.0,030.7,023.7,16.0,0000.0,0007.19,0003.25,0002.86
2023-11-18 14:24:00,SystemResetWarning,0829.9,5.01,000.00,022.4,021.4,000.0,030.7,023.8,17.1,0000.0,0007.13,0003.22,0002.79
2023-11-18 14:25:00,SystemResetWarning,0829.9,5.01,000.00,022.4,021.4,000.0,030.7,023.8,17.5,0000.0,0007.10,0003.22,0002.78
2023-11-18 14:26:00,SystemResetWarning,0829.9,5.00,000.00,022.4,021.4,000.0,030.7,023.8,17.8,0000.0,0007.28,0003.27,0002.82
2023-11-18 14:27:00,SystemResetWarning,0829.9,5.00,000.00,022.4,021.5,000.0,030.7,023.8,18.1,0000.0,0007.40,0003.33,0002.92
2023-11-18 14:28:00,SystemResetWarning,0829.9,5.00,000.00,022.4,021.5,000.0,030.7,023.8,18.2,0000.0,0007.83,0003.46,0003.06
2023-11-18 14:29:00,SystemResetWarning,0829.9,5.00,000.00,022.4,021.5,000.0,030.7,023.8,18.2,0000.0,0009.01,0003.59,0003.19
2023-11-18 14:30:00,SystemResetWarning,0829.9,5.00,000.00,022.5,021.5,000.0,030.7,023.8,18.0,0000.0,0009.51,0003.75,0003.32
2023-11-18 14:31:00,SystemResetWarning,0829.9,5.00,000.00,022.5,021.5,000.0,030.8,023.8,16.7,0000.0,0009.84,0003.88,0003.45
2023-11-18 14:32:00,SystemResetWarning,0829.9,5.00,000.00,022.5,021.5,000.0,030.8,023.8,16.2,0000.0,0009.51,0004.11,0003.61
2023-11-18 14:33:00,SystemResetWarning,0829.9,5.00,000.00,022.5,021.5,000.0,030.8,023.9,14.3,0003.4,0009.41,0004.41,0003.84
2023-11-18 14:34:00,SystemResetWarning,0829.9,5.00,000.00,022.5,021.5,000.0,030.8,023.8,13.9,0004.2,0009.70,0004.67,0004.08
2023-11-18 14:35:00,SystemResetWarning,0829.9,5.00,000.00,022.5,021.5,000.0,030.8,023.8,15.1,0004.2,0010.17,0004.94,0004.34
2023-11-18 14:36:00,SystemResetWarning,0829.9,5.00,000.00,022.5,021.5,000.0,030.8,023.8,15.4,0004.4,0010.64,0005.18,0004.57
2023-11-18 14:37:00,SystemResetWarning,0830.0,5.01,000.00,022.5,021.5,000.0,030.8,023.9,14.6,0004.3,0011.21,0005.29,0004.70
2023-11-18 14:38:00,SystemResetWarning,0830.0,5.00,000.00,022.5,021.5,000.0,030.8,023.8,13.9,0004.2,0011.38,0005.38,0004.80
2023-11-18 14:39:00,SystemResetWarning,0830.0,5.00,000.00,022.5,021.5,000.0,030.8,023.9,14.6,0004.2,0011.01,0005.26,0004.73
2023-11-18 14:40:00,SystemResetWarning,0830.1,5.00,000.00,022.5,021.5,000.0,030.8,023.9,15.4,0004.2,0009.77,0005.07,0004.58
2023-11-18 14:41:00,SystemResetWarning,0830.0,5.00,000.00,022.5,021.5,000.0,030.8,023.9,15.1,0004.4,0009.36,0004.96,0004.48
2023-11-18 14:42:00,SystemResetWarning,0830.0,5.00,000.00,022.5,021.5,000.0,030.8,023.9,14.6,0004.3,0009.11,0004.88,0004.36
2023-11-18 14:43:00,SystemResetWarning,0830.0,5.00,000.00,022.5,021.5,000.0,030.8,023.9,14.3,0004.5,0008.80,0004.65,0004.20
2023-11-18 14:44:00,SystemResetWarning,0830.0,4.99,000.00,022.5,021.5,000.0,030.8,023.9,14.0,0004.5,0008.33,0004.36,0003.98
2023-11-18 14:45:00,SystemResetWarning,0830.0,5.00,000.00,022.5,021.6,000.0,030.8,023.9,14.1,0004.5,0008.38,0004.20,0003.82
2023-11-18 14:46:00,SystemResetWarning,0830.0,5.00,000.00,022.5,021.6,000.0,030.8,023.9,15.2,0002.8,0008.28,0004.07,0003.67
2023-11-18 14:47:00,SystemResetWarning,0830.0,5.01,000.00,022.5,021.6,000.0,030.8,023.9,16.8,0000.0,0007.89,0003.90,0003.51
2023-11-18 14:48:00,SystemResetWarning,0830.0,5.00,000.00,022.6,021.6,000.0,030.8,023.9,17.1,0000.0,0007.31,0003.79,0003.40
2023-11-18 14:49:00,SystemResetWarning,0830.0,5.00,000.00,022.6,021.6,000.0,030.8,023.9,17.3,0000.0,0006.85,0003.67,0003.30
2023-11-18 14:50:00,SystemResetWarning,0830.1,5.00,000.00,022.6,021.7,000.0,030.8,024.0,17.6,0000.0,0006.69,0003.64,0003.28
2023-11-18 14:51:00,SystemResetWarning,0830.0,5.00,000.00,022.6,021.7,000.0,030.8,024.0,17.7,0000.0,0006.87,0003.65,0003.28
2023-11-18 14:52:00,SystemResetWarning,0830.0,5.00,000.00,022.6,021.7,000.0,030.9,024.0,17.6,0000.0,0007.63,0003.68,0003.31
2023-11-18 14:53:00,SystemResetWarning,0830.0,5.01,000.00,022.6,021.8,000.0,030.9,024.0,17.7,0000.0,0007.88,0003.82,0003.44
2023-11-18 14:54:00,SystemResetWarning,0830.0,5.00,000.00,022.6,021.8,000.0,030.9,024.0,17.7,0000.0,0008.20,0004.03,0003.61
2023-11-18 14:55:00,SystemResetWarning,0830.0,5.00,000.00,022.7,021.8,000.0,030.9,024.1,17.8,0003.2,0008.65,0004.33,0003.83
2023-11-18 14:56:00,SystemResetWarning,0830.0,4.99,000.00,022.7,021.9,000.0,030.9,024.1,17.9,0004.1,0008.73,0004.54,0004.01
2023-11-18 14:57:00,SystemResetWarning,0830.0,5.00,000.00,022.7,021.9,000.0,030.9,024.1,18.0,0004.3,0008.86,0004.72,0004.16
2023-11-18 14:58:00,SystemResetWarning,0830.0,5.00,000.00,022.7,021.9,000.0,030.9,024.1,17.9,0004.2,0009.51,0004.90,0004.33
2023-11-18 14:59:00,SystemResetWarning,0830.0,5.00,000.00,022.7,021.9,000.0,030.9,024.1,17.9,0004.4,0009.99,0005.11,0004.51
